Location: Borgo
(42.3939°N, 9.2791°E)
Time: 21:52:58
(UTC+00:00)

H-2A R/B - Pass Details

Date: 24 January 2021
Orbit: 529 x 651 km, 98.3° (Epoch: 03 March)

Event Time Altitude Azimuth Distance (km) Brightness Sun altitude
Rises 17:01:46 0° 176° (S) 2,737 6.1 -6.8°
Reaches altitude 10° 17:03:54 10° 181° (S) 1,864 5.3 -7.2°
Maximum altitude 17:07:51 54° 259° (W) 716 3.4 -7.9°
Drops below altitude 10° 17:12:00 10° 338° (NNW) 1,953 5.2 -8.6°
Sets 17:14:16 0° 343° (NNW) 2,882 6.0 -9.0°
